Weather History for KCDD - March, 2014

Change the Weather History Date:

Tuesday, March 25, 2014

  Actual Average Record
Temperature  
Mean Temperature 5 °F -  
Max Temperature 21 °F 37 °F 60 °F (2004)
Min Temperature -11 °F 17 °F -11 °F (2014)
Degree Days  
Heating Degree Days 60    
Moisture  
Dew Point -8 °F    
Average Humidity 58    
Maximum Humidity 78    
Minimum Humidity 35    
Precipitation  
Precipitation 0.00 in - - ()
Sea Level Pressure  
Sea Level Pressure 30.10 in    
Wind  
Wind Speed 4 mph (NW)    
Max Wind Speed 13 mph    
Max Gust Speed 23 mph    
Visibility 10 miles    
Events Snow    
Averages and records for this station are not official NWS values.
T = Trace of Precipitation, MM = Missing Value Source: NWS Daily Summary

Daily Weather History Graph

Daily Weather History Graph

Search for Another Location

Airport or City:

Trip Planner

Search our weather history database for the weather conditions in past years. The results will help you decide how hot, cold, wet, or windy it might be!

Date:

Astronomy

Mar. 25, 2014 Rise Set
Actual Time 7:02 AM CDT 7:30 PM CDT
Civil Twilight 6:31 AM CDT 8:01 PM CDT
Nautical Twilight 5:54 AM CDT 8:38 PM CDT
Astronomical Twilight 5:15 AM CDT 9:17 PM CDT
Moon 3:48 AM CDT (3/25) 1:38 PM CDT (3/25)
Length of Visible Light 13h 30m
Length of Day
12h 27m
Waning Crescent, 32% of the Moon is Illuminated
Mar 25
Waning Crescent
Mar 30
New
Apr 7
First Quarter
Apr 15
Full
Apr 22
Last Quarter

Hourly Weather History & Observations

Time (CDT) Temp. Windchill Dew Point Humidity Pressure Visibility Wind Dir Wind Speed Gust Speed Precip Events Conditions
12:09 AM 3.2 °F -7.8 °F -7.6 °F 61% 30.09 in 10.0 mi NW 5.8 mph - N/A   Clear
12:28 AM 3.2 °F -10.3 °F -7.6 °F 61% 30.09 in 10.0 mi NNW 8.1 mph - N/A   Clear
12:48 AM 3.2 °F -7.8 °F -7.6 °F 61% 30.09 in 10.0 mi NW 5.8 mph - N/A   Clear
1:08 AM 1.4 °F -8.3 °F -9.4 °F 61% 30.09 in 10.0 mi NW 4.6 mph - N/A   Clear
1:28 AM 1.4 °F -6.2 °F -9.4 °F 61% 30.10 in 10.0 mi NNW 3.5 mph - N/A   Clear
1:48 AM -0.4 °F -12.0 °F -9.4 °F 66% 30.10 in 10.0 mi NNW 5.8 mph - N/A   Clear
2:08 AM -0.4 °F -8.3 °F -9.4 °F 66% 30.10 in 10.0 mi NNW 3.5 mph - N/A   Clear
2:28 AM -0.4 °F -8.3 °F -9.4 °F 66% 30.10 in 10.0 mi NNW 3.5 mph - N/A   Clear
2:48 AM -2.2 °F - -11.2 °F 66% 30.10 in 10.0 mi Calm Calm - N/A   Clear
3:08 AM -4.0 °F - -14.8 °F 60% 30.10 in 10.0 mi Calm Calm - N/A   Clear
3:28 AM -7.6 °F - -16.6 °F 65% 30.10 in 10.0 mi Calm Calm - N/A   Clear
3:48 AM -9.4 °F - -20.2 °F 59% 30.11 in 10.0 mi Calm Calm - N/A   Clear
4:08 AM -9.4 °F - -18.4 °F 65% 30.11 in 10.0 mi Calm Calm - N/A   Clear
4:28 AM -7.6 °F - -13.0 °F 77% 30.12 in 10.0 mi Calm Calm - N/A   Clear
4:48 AM -7.6 °F - -14.8 °F 71% 30.11 in 10.0 mi Calm Calm - N/A   Clear
5:08 AM -9.4 °F - -16.6 °F 71% 30.11 in 10.0 mi Calm Calm - N/A   Clear
5:28 AM -7.6 °F - -13.0 °F 77% 30.12 in 10.0 mi Calm Calm - N/A   Clear
5:48 AM -5.8 °F - -11.2 °F 77% 30.12 in 10.0 mi Calm Calm - N/A   Clear
6:08 AM -7.6 °F - -14.8 °F 71% 30.13 in 10.0 mi Calm Calm - N/A   Scattered Clouds
6:28 AM -7.6 °F -16.5 °F -14.8 °F 71% 30.14 in 10.0 mi West 3.5 mph - N/A   Scattered Clouds
6:48 AM -7.6 °F -16.5 °F -13.0 °F 77% 30.13 in 10.0 mi West 3.5 mph - N/A   Clear
7:08 AM -5.8 °F - -11.2 °F 77% 30.14 in 10.0 mi Calm Calm - N/A   Scattered Clouds
7:28 AM -7.6 °F - -13.0 °F 77% 30.14 in 10.0 mi Calm Calm - N/A   Scattered Clouds
7:48 AM -5.8 °F - -11.2 °F 77% 30.14 in 4.0 mi Calm Calm - N/A Snow Light Snow
8:08 AM -2.2 °F - -9.4 °F 71% 30.14 in 10.0 mi Calm Calm - N/A   Mostly Cloudy
8:28 AM -2.2 °F - -7.6 °F 78% 30.13 in 10.0 mi Calm Calm - N/A   Scattered Clouds
8:48 AM -0.4 °F - -5.8 °F 78% 30.13 in 10.0 mi Calm Calm - N/A   Clear
9:08 AM 3.2 °F -4.2 °F -2.2 °F 78% 30.13 in 10.0 mi NNW 3.5 mph - N/A   Clear
9:28 AM 8.6 °F -1.3 °F -0.4 °F 67% 30.13 in 10.0 mi NW 5.8 mph - N/A   Clear
9:48 AM 8.6 °F -1.3 °F -0.4 °F 67% 30.13 in 10.0 mi NW 5.8 mph 17.3 mph N/A   Scattered Clouds
10:08 AM 8.6 °F -2.6 °F -0.4 °F 67% 30.13 in 10.0 mi NW 6.9 mph - N/A   Mostly Cloudy
10:28 AM 10.4 °F -2.4 °F -0.4 °F 62% 30.13 in 10.0 mi NNW 9.2 mph - N/A   Mostly Cloudy
10:48 AM 10.4 °F -3.3 °F -0.4 °F 62% 30.13 in 10.0 mi NNW 10.4 mph 19.6 mph N/A   Mostly Cloudy
11:08 AM 12.2 °F -2.5 °F -0.4 °F 57% 30.13 in 10.0 mi NNW 12.7 mph 19.6 mph N/A   Overcast
11:28 AM 12.2 °F -1.0 °F -0.4 °F 57% 30.13 in 10.0 mi NW 10.4 mph 21.9 mph N/A   Mostly Cloudy
11:48 AM 15.8 °F 3.4 °F -2.2 °F 45% 30.12 in 10.0 mi NW 10.4 mph 18.4 mph N/A   Mostly Cloudy
12:08 PM 15.8 °F 4.2 °F -0.4 °F 49% 30.12 in 10.0 mi West 9.2 mph 17.3 mph N/A   Mostly Cloudy
12:28 PM 15.8 °F 3.4 °F -2.2 °F 45% 30.12 in 10.0 mi NNW 10.4 mph 19.6 mph N/A   Mostly Cloudy
12:48 PM 15.8 °F 5.1 °F -2.2 °F 45% 30.11 in 10.0 mi WNW 8.1 mph 18.4 mph N/A   Overcast
1:08 PM 17.6 °F 6.4 °F -0.4 °F 45% 30.11 in 10.0 mi West 9.2 mph 20.7 mph N/A   Overcast
1:28 PM 17.6 °F 5.0 °F -2.2 °F 42% 30.10 in 10.0 mi NW 11.5 mph 19.6 mph N/A   Mostly Cloudy
1:48 PM 17.6 °F 6.4 °F -0.4 °F 45% 30.09 in 10.0 mi WNW 9.2 mph - N/A   Overcast
2:08 PM 19.4 °F 10.4 °F -0.4 °F 42% 30.09 in 10.0 mi West 6.9 mph - N/A   Overcast
2:28 PM 19.4 °F 9.5 °F -0.4 °F 42% 30.08 in 10.0 mi West 8.1 mph 16.1 mph N/A   Overcast
2:48 PM 17.6 °F 8.2 °F -0.4 °F 45% 30.07 in 10.0 mi West 6.9 mph 18.4 mph N/A   Mostly Cloudy
3:08 PM 19.4 °F 7.9 °F -0.4 °F 42% 30.07 in 10.0 mi NNW 10.4 mph 17.3 mph N/A   Overcast
3:28 PM 19.4 °F 9.5 °F -2.2 °F 39% 30.07 in 10.0 mi WNW 8.1 mph - N/A   Mostly Cloudy
3:48 PM 17.6 °F 4.3 °F -4.0 °F 38% 30.07 in 10.0 mi NW 12.7 mph 20.7 mph N/A   Mostly Cloudy
4:08 PM 17.6 °F 6.4 °F -2.2 °F 42% 30.07 in 10.0 mi West 9.2 mph - N/A   Mostly Cloudy
4:28 PM 21.2 °F 13.6 °F -0.4 °F 39% 30.07 in 10.0 mi West 5.8 mph 23.0 mph N/A   Mostly Cloudy
4:48 PM 19.4 °F 7.9 °F -2.2 °F 39% 30.07 in 10.0 mi WSW 10.4 mph 17.3 mph N/A   Mostly Cloudy
5:08 PM 21.2 °F 10.1 °F -2.2 °F 36% 30.06 in 10.0 mi NW 10.4 mph 18.4 mph N/A   Mostly Cloudy
5:28 PM 19.4 °F 8.6 °F -2.2 °F 39% 30.06 in 10.0 mi West 9.2 mph 18.4 mph N/A   Mostly Cloudy
5:48 PM 19.4 °F 10.4 °F -4.0 °F 36% 30.06 in 10.0 mi WNW 6.9 mph 18.4 mph N/A   Scattered Clouds
6:08 PM 19.4 °F 12.8 °F -4.0 °F 36% 30.06 in 10.0 mi NW 4.6 mph 19.6 mph N/A   Clear
6:28 PM 19.4 °F 10.4 °F -4.0 °F 36% 30.06 in 10.0 mi NW 6.9 mph - N/A   Clear
6:48 PM 17.6 °F 8.2 °F -5.8 °F 35% 30.06 in 10.0 mi NW 6.9 mph - N/A   Clear
7:08 PM 14.0 °F 8.2 °F -5.8 °F 41% 30.06 in 10.0 mi NW 3.5 mph - N/A   Clear
7:28 PM 12.2 °F - -7.6 °F 41% 30.06 in 10.0 mi Calm Calm - N/A   Clear
7:48 PM 8.6 °F - -9.4 °F 44% 30.06 in 10.0 mi Calm Calm - N/A   Clear
8:08 PM 3.2 °F - -14.8 °F 43% 30.06 in 10.0 mi Calm Calm - N/A   Clear
8:28 PM -0.4 °F - -14.8 °F 51% 30.07 in 10.0 mi Calm Calm - N/A   Clear
8:48 PM - - - N/A% 30.07 in 10.0 mi Calm Calm - N/A   Clear
9:08 PM -2.2 °F - -14.8 °F 55% 30.07 in 10.0 mi Calm Calm - N/A   Clear
9:28 PM -5.8 °F - -14.8 °F 65% 30.06 in 10.0 mi Calm Calm - N/A   Clear
9:48 PM -5.8 °F - -14.8 °F 65% 30.06 in 10.0 mi Calm Calm - N/A   Clear
10:08 PM -7.6 °F - -16.6 °F 65% 30.07 in 10.0 mi Calm Calm - N/A   Clear
10:28 PM -9.4 °F - -16.6 °F 71% 30.06 in 10.0 mi Calm Calm - N/A   Clear
10:48 PM -9.4 °F - -18.4 °F 65% 30.06 in 10.0 mi Calm Calm - N/A   Clear
11:08 PM -11.2 °F - -18.4 °F 70% 30.06 in 10.0 mi Calm Calm - N/A   Clear
11:28 PM -11.2 °F - -18.4 °F 70% 30.06 in 10.0 mi Calm Calm - N/A   Clear
11:48 PM -11.2 °F - -18.4 °F 70% 30.07 in 10.0 mi Calm Calm - N/A   Clear